Location: *
(60.1759°S, 155.0663°W)
Time: 09:48:35
(UTC+00:00)

Cosmos 1603 - Pass Details

Date: 17 September 2019
Orbit: 830 x 860 km, 71.0° (Epoch: 23 October)

Event Time Altitude Azimuth Distance (km) Brightness Sun altitude
Exits shadow 12:33:28 73° 292° (WNW) 916 3.6 -26.3°
Maximum altitude 12:34:02 82° 229° (SW) 888 3.7 -26.2°
Drops below altitude 10° 12:39:53 10° 140° (SE) 2,525 7.2 -25.8°
Sets 12:42:21 0° 138° (SE) 3,462 8.3 -25.6°
